Regional Weather Roundup
Issued by NWS Charleston, SC

Current Version | Previous Version | Graphics & Text | Print | Product List | Glossary On
Versions: 1 2 3 4 5 6 7 8 9 10 11 12 13 14 15 16 17 18 19 20 21 22 23 24 25 26 27 28 29 30 31 32 33 34 35 36 37 38 39 40 41 42 43 44 45 46 47 48 49 50
000
ASUS42 KCHS 301526
RWRCHS

REGIONAL WEATHER ROUNDUP
NATIONAL WEATHER SERVICE CHARLESTON SC
1100 AM EDT THU JUL 30 2015

NOTE: "FAIR" INDICATES FEW OR NO CLOUDS BELOW 12,000 FEET WITH NO
SIGNIFICANT WEATHER AND/OR OBSTRUCTIONS TO VISIBILITY.

NOT ALL STATIONS ARE QUALITY CONTROLLED BY THE NATIONAL
WEATHER SERVICE. USE DATA WITH CAUTION...ESPECIALLY
DEWPOINT OBSERVATIONS.

SCZ027-030-031-034>040-042>050-301600-
...SOUTHEAST SOUTH CAROLINA...

CITY           SKY/WX    TMP DP  RH WIND       PRES   REMARKS
N CHARLESTON   MOSUNNY   88  73  61 N5        29.96S HX  95
WATERFRONT PRK   N/A     84  76  77 N5        29.94R HX  93
MOUNT PLEASANT LGT RAIN  88  73  62 NE3       29.97R HX  96
JOHNS ISLAND   DRIZZLE   88  75  66 CALM      29.97R HX  97
PINOPOLIS      NOT AVBL
MONCKS CORNER  FAIR      90  72  55 CALM      29.97S HX  96
SUMMERVILLE    FAIR      90  72  55 N5        29.98R HX  96
BEAUFORT MCAS  MOSUNNY   89  71  55 NE3       29.97R HX  95
BEAUFORT ARPT  FAIR      88  72  58 NE5       29.97R HX  94
HILTON HEAD IS MOSUNNY   88  73  62 N3        29.98R HX  96
WALTERBORO     SUNNY     93  63  36 N3        29.98S HX  94
ALLENDALE      FAIR      90  72  55 CALM      29.97S HX  96

...SOUTHERN MIDLANDS AND PEE DEE...

CITY           SKY/WX    TMP DP  RH WIND       PRES   REMARKS
GEORGETOWN     NOT AVBL
KINGSTREE      NOT AVBL
ORANGEBURG     SUNNY     89  66  46 NW3       29.97F HX  91
BARNWELL       FAIR      90  75  62 CALM      29.98S HX 100
AIKEN          FAIR      88  70  55 NE6       30.02S HX  92
MANNING        FAIR      90  66  45 NW5       29.97S HX  92
COLUMBIA       MOSUNNY   91  72  53 CALM      29.97S HX  98
SUMTER         SUNNY     89  68  49 VRB2      29.96S HX  92
FLORENCE       SUNNY     90  69  50 NW6       29.97S HX  94
MYRTLE BEACH   SUNNY     88  73  62 N8        29.98S HX  96
N MYRTLE BEACH SUNNY     87  72  60 VRB5      29.96S HX  93

$$

GAZ063-065-086>088-099>101-113>116-118-119-134>141-150-301600-
...SOUTHEAST GEORGIA...

CITY           SKY/WX    TMP DP  RH WIND       PRES   REMARKS
SAVANNAH ARPT  MOSUNNY   91  64  40 VRB3      29.97R HX  92
HUNTER AAF     SUNNY     90  73  58 VRB1      29.95R HX  98
FORT STEWART   MOSUNNY   89  71  55 S1        29.96R HX  95
STATESBORO     PTSUNNY   84  78  81 W3        30.00R HX  95
SYLVANIA       PTSUNNY   90  76  64 CALM      30.00R HX 102
CLAXTON        PTSUNNY   86  77  74 CALM      29.99R HX  97

...CSRA...CENTRAL AND FAR SOUTHEAST GEORGIA...

CITY           SKY/WX    TMP DP  RH WIND       PRES   REMARKS
THOMSON        MOSUNNY   90  79  71 CALM      30.03S HX 106
AUGUSTA-BUSH   SUNNY     87  75  67 VRB3      29.97S HX  96
AUGUSTA-DANIEL SUNNY     89  74  60 N3        29.99S HX  98
SWAINSBORO     FAIR      88  79  74 CALM      30.00S HX 102
VIDALIA        CLOUDY    84  75  74 CALM      30.00R HX  92
EASTMAN        PTSUNNY   88  78  72 CALM      30.02R HX 101
HAZLEHURST     FAIR      87  78  73 W3        29.99R HX 100
ALMA           CLOUDY    84  77  79 CALM      29.99R HX  94
WAYCROSS       MOSUNNY   85  80  84 CALM      30.00R HX  98
JESUP          FAIR      88  77  70 CALM      29.99R HX 100
BAXLEY         CLOUDY    86  77  74 CALM      29.99R HX  97
BRUNSWICK      MOSUNNY   88  73  62 E3        29.99R HX  96
SAINT SIMONS   MOSUNNY   85  77  77 VRB6      29.98R HX  95

$$

SCZ027-028-034-036>038-045-046-048>050-GAZ119-141-301600-
...LAKE AND SUPPLEMENTAL COASTAL OBSERVATIONS...

STATION/POSITION TIME  TEMP    WIND        PRES    WAVE   SWELL
                       AIR SEA DIR/SP/G            HT/PER HT/PER/DIR
                 (UTC) (F)     (DEG/KT/KT) (MB)    (FT/S) (FT/S/D)
UPR LAKE MARION  NOT AVBL
WINYAH BAY       1400   82      70/  6     1014.0
LAKE MURRAY      1400   86      CALM  /  4 1014.2F
ACE BASIN NERRS  1400   87        CALM     1015.0
FORT PULASKI     1500   84 86   80/  5/  7 1015.4
SAPELO ISLAND    1500   89      50/  3     1015.0S

$$

ANZ835-935-AMZ111-154-330-350-352-354-370-450-454-472-301600-
...C-MAN AND BUOY OBSERVATIONS...

STATION/POSITION TIME  TEMP    WIND        PRES    WAVE   SWELL
                       AIR SEA DIR/SP/G            HT/PER HT/PER/DIR
                 (UTC) (F)     (DEG/KT/KT) (MB)    (FT/S) (FT/S/D)
BUOY 41004       1450   82 85   10/ 10/ 14 1013.7R   3/ 8   3/ 8
BUOY 41008       1450   82 83   70/  6/  8 1015.3R   2/ 7   2/110/ 7
FOLLY BEACH CMAN 1500   83      90/  6/  6 1014.9R
CAPERS NEARSHORE 1408   81      70/  8/ 10 1014.8R
FRIPP NEARSHORE  1400   84      40/  6/  8 1014.3R


STATION/POSITION TIME  TEMP    WIND        PRES    WAVE   SWELL
                       AIR SEA DIR/SP/G            HT/PER HT/PER/DIR
                 (UTC) (F)     (DEG/KT/KT) (MB)    (FT/S) (FT/S/D)
5E ST. MARYS GA  1421      83                N/A     2/ 5
FRYING PAN BUOY  1450   82 84   20/  8/ 10 1014.3F   4/ 8   3/160/ 8
BUOY 41025       1450   83 85  170/ 19/ 25 1014.7R   4/ 8   2/ 90/ 8
CAPE LOOKOUT NC  1500   80     160/ 17/ 22 1014.4R
BUOY 41002       1450   81 81  200/ 21/ 25 1015.7R   8/ 7
BUOY 41010       1420   82 84  230/ 14/ 16 1015.8R
ST AUGUSTINE FL  1500   79 81   60/  3/  4 1016.5R


$$



USA.gov is the U.S. government's official web portal to all federal, state and local government web resources and services.